Flag for New Zealand Weather past 2 weeks in Hamilton, New Zealand

Now
73 °F

Mild.


Feels Like: 76 °F
Forecast: 56 / 76 °F
Wind: 6 mph from South

Location: Auckland Airport

Current Time: Dec 19, 2014 at 11:54:33 AM

Latest Report: Dec 19, 2014 at 11:30 AM


Visibility: N/A

Pressure: 30.07 "Hg

Humidity: 69%

Dew point: 63 °F

Location of HamiltonLocation

Historic Weather in Hamilton — Graph

°F

Hamilton temperature yesterday

Maximum temperature yesterday: 72 °F (at 2:30 PM)
Minimum temperature yesterday: 63 °F (at 10:30 PM)
Average temperature yesterday: 67 °F

Past Weeks' High & Low Weather Summary

 TemperatureHumidityPressure
High75 °F (Dec 10, 1:30 PM)100% (Dec 6, 4:30 AM)30.27 "Hg (Dec 6, 4:30 AM)
Low57 °F (Dec 13, 11:30 PM)57% (Dec 10, 12:30 PM)29.68 "Hg (Dec 14, 5:00 PM)
Average64 °F82%29.98 "Hg
* Reported Dec 4 11:00 AM — Dec 19 11:00 AM, Hamilton, Weather by CustomWeather, © 2014

Note: Actual official high and low records may vary slightly from our data, if they occured in-between our weather recording intervals... More about our weather records

Advertising

Hamilton weather history for previous 24 hours

 ConditionsComfort  
Time TempWeatherWind HumidityBarometerVisibility
11:00 AM
Dec 19
73 °FMild.3 mph65%30.09 "HgN/A
10:30 AM72 °FMild.5 mph65%30.09 "HgN/A
10:00 AM70 °FPassing clouds.9 mph69%30.09 "HgN/A
9:30 AM70 °FPassing clouds.3 mph69%30.09 "HgN/A
9:00 AM68 °FMild.1 mph78%30.09 "HgN/A
8:30 AM66 °FMild.3 mph88%30.09 "HgN/A
8:00 AM64 °FMild.3 mph94%30.09 "HgN/A
7:30 AM61 °FScattered clouds.1 mph100%30.09 "HgN/A
7:00 AM61 °FFog.3 mph100%30.09 "Hg0 mi
6:30 AM61 °FScattered clouds.3 mph100%30.07 "HgN/A
6:00 AM59 °FPartly sunny.3 mph100%30.07 "HgN/A
5:30 AM59 °FPassing clouds.5 mph100%30.07 "HgN/A
5:00 AM59 °FPassing clouds.2 mph100%30.04 "HgN/A
4:30 AM59 °FPassing clouds.3 mph100%30.04 "Hg6 mi
4:00 AM59 °FPassing clouds.3 mph100%30.04 "HgN/A
3:30 AM61 °FPassing clouds.3 mph94%30.04 "HgN/A
3:00 AM61 °FOvercast.2 mph100%30.04 "HgN/A
2:30 AM63 °FPassing clouds.2 mph94%30.04 "HgN/A
2:00 AM63 °FPassing clouds.3 mph94%30.07 "HgN/A
1:30 AM64 °FOvercast.2 mph94%30.07 "HgN/A
1:00 AM64 °FPassing clouds.2 mph94%30.07 "HgN/A
12:30 AM63 °FOvercast.3 mph94%30.07 "HgN/A
12:00 AM63 °FPassing clouds.5 mph94%30.07 "HgN/A
11:30 PM
Dec 18
63 °FPassing clouds.5 mph94%30.07 "HgN/A
11:00 PM63 °FPassing clouds.5 mph88%30.07 "HgN/A
10:30 PM63 °FPassing clouds.5 mph88%30.07 "HgN/A
10:00 PM64 °FPassing clouds.7 mph88%30.04 "HgN/A
9:30 PM66 °FOvercast.8 mph83%30.04 "HgN/A
9:00 PM66 °FOvercast.6 mph78%30.04 "HgN/A
8:30 PM66 °FOvercast.9 mph78%30.04 "HgN/A
8:00 PM66 °FOvercast.9 mph83%30.01 "HgN/A
7:30 PM66 °FOvercast.12 mph83%30.01 "HgN/A
7:00 PM68 °FOvercast.12 mph78%30.01 "HgN/A
6:30 PM70 °FOvercast.16 mph73%29.98 "HgN/A
6:00 PM68 °FOvercast.17 mph78%29.98 "HgN/A
5:30 PM70 °FOvercast.15 mph73%29.98 "HgN/A
4:30 PM72 °FBroken clouds.15 mph73%29.98 "HgN/A
4:00 PM72 °FOvercast.13 mph69%29.98 "HgN/A
3:30 PM72 °FOvercast.15 mph65%29.98 "HgN/A
3:00 PM72 °FPartly sunny.15 mph69%29.98 "HgN/A
2:30 PM72 °FBroken clouds.14 mph73%29.98 "HgN/A
2:00 PM70 °FMostly cloudy.13 mph73%29.95 "HgN/A
1:30 PM70 °FMostly cloudy.12 mph78%29.98 "HgN/A
1:00 PM68 °FMore clouds than sun.13 mph78%29.98 "HgN/A
12:30 PM68 °FPartly sunny.12 mph83%29.98 "HgN/A
12:00 PM68 °FMostly cloudy.14 mph78%29.95 "HgN/A
11:30 AM68 °FPartly sunny.14 mph78%29.95 "HgN/A
11:00 AM70 °FBroken clouds.12 mph83%29.95 "HgN/A
Weather by CustomWeather, © 2014

See weather overviewHow to use our weather pages